Flag for Nicaragua Weather past 2 weeks in Masaya, Nicaragua

Now
81 °F

Scattered clouds.


Feels Like: 85 °F
Forecast: 76 / 88 °F
Wind: 12 mph from East

Location: Managua A. C. Sandino

Current Time: Jul 6, 2015 at 8:04:18 AM

Latest Report: Jul 6, 2015 at 7:00 AM


Visibility: N/A

Pressure: 29.89 "Hg

Humidity: 74%

Dew point: 72 °F

Location of MasayaLocation

Historic Weather in Masaya — Graph

°F

Masaya temperature yesterday

Maximum temperature yesterday: 93 °F (at 2:00 PM)
Minimum temperature yesterday: 77 °F (at 3:00 AM)
Average temperature yesterday: 85 °F

Past Weeks' High & Low Weather Summary

 TemperatureHumidityPressure
High95 °F (Jun 24, 1:00 PM)89% (Jun 22, 4:00 AM)29.92 "Hg (Jun 22, 4:00 AM)
Low64 °F (Jun 25, 7:00 AM)41% (Jun 30, 2:00 PM)29.71 "Hg (Jul 2, 3:00 PM)
Average84 °F68%29.83 "Hg
* Reported Jun 21 7:00 AM — Jul 6 7:00 AM, Masaya, Weather by CustomWeather, © 2015

Note: Actual official high and low records may vary slightly from our data, if they occured in-between our weather recording intervals... More about our weather records

Advertising

Masaya weather history for previous 24 hours

 ConditionsComfort  
Time TempWeatherWind HumidityBarometerVisibility
7:00 AM
Mon, Jul 6
81 °FScattered clouds.12 mph74%29.89 "HgN/A
6:00 AM77 °FScattered clouds.No wind89%29.86 "HgN/A
5:00 AM77 °FPassing clouds.No wind89%29.86 "HgN/A
4:00 AM77 °FPassing clouds.7 mph83%29.86 "HgN/A
3:00 AM79 °FPassing clouds.7 mph79%29.86 "HgN/A
2:00 AM79 °FPassing clouds.7 mph84%29.89 "HgN/A
1:00 AM79 °FPassing clouds.5 mph84%29.89 "HgN/A
12:00 AM81 °FPassing clouds.5 mph84%29.89 "HgN/A
11:00 PM
Sun, Jul 5
81 °FClear.7 mph79%29.89 "Hg10 mi
10:00 PM82 °FClear.12 mph74%29.86 "Hg10 mi
9:00 PM82 °FClear.12 mph74%29.86 "Hg10 mi
8:00 PM84 °FPassing clouds.16 mph70%29.86 "HgN/A
7:00 PM84 °FClear.9 mph70%29.86 "Hg10 mi
6:00 PM88 °FPassing clouds.12 mph62%29.83 "HgN/A
5:00 PM90 °FScattered clouds.16 mph59%29.83 "HgN/A
4:00 PM91 °FScattered clouds.16 mph56%29.80 "HgN/A
3:00 PM91 °FScattered clouds.21 mph59%29.80 "HgN/A
2:00 PM93 °FScattered clouds.16 mph53%29.80 "HgN/A
1:00 PM91 °FPassing clouds.14 mph56%29.83 "HgN/A
12:00 PM86 °FPassing clouds.12 mph70%29.86 "HgN/A
11:00 AM88 °FPartly sunny.12 mph62%29.86 "HgN/A
10:00 AM88 °FScattered clouds.21 mph62%29.86 "HgN/A
9:00 AM88 °FScattered clouds.12 mph62%29.86 "HgN/A
8:00 AM84 °FScattered clouds.9 mph70%29.86 "HgN/A
Weather by CustomWeather, © 2015

See weather overviewHow to use our weather pages